Résultats de la compétition "6 jours de l'Aveyron - Etape 6" du 09-08-2008 organisée par le comité départemental du 12 - Aveyron
     
  Télécharger le fichier CSV.  
     
     

 Circuit "Q"

Licence Nom Prénom Temps CN
précédent
Score sur
la course
Différence
2401DEVILLENelly0:36:4143574663+306
2557VOGTChristiane0:53:5633873172-215
16634BAUDOINAnnie0:55:0222443108+864
701ABISSEGisele0:56:3229593026+67
1380DIEUDONNEMadeleine0:56:5142153009-1206
5497COCAULTYvonne0:57:4430892963-126
145COUPATCatherine0:58:4927732908+135
395BLASCONicole0:59:2633452878-467
2182PROSTGisele1:02:5425372720+183
14245RICHARDNicole1:06:5624632556+93
6443GEOFFROYNicole1:07:0223862552+166
6886FRANTZFrancoise1:08:3728452493-352
17LEVEQUEPaulette1:10:2213912431+1040
3185PASCAUDClaire1:10:5320522413+361
2680KIEFFERMireille1:11:2627202395-325
3302JEANPIERREM-Therese1:13:2030142333-681
8121LEBIAN DEROMEAnnie1:14:0521142309+195
12059GROSJEANA-Marie1:15:2518902268+378
15894LUDEWIG-JAMESCarol1:16:0417372249+512
3619LAGOIDETColette1:16:5025672226-341
6826DUVOUXFrance1:17:5027202198-522
8954BASTIEN-FATHNicole1:21:2519732101+128
9AULAGNONMireille1:44:49N/A1632N/A
1444BEGUINOTM-Louise1:44:5813901630+240
1098MULLERM-Anne1:45:3424051620-785
2546DESAINTJANAliceN/A20070-2007
5033THIEBAULTMoniqueN/A42280-4228

  Indice de confiance du circuit (moyenne des différences entre CN et score sur la course des 3 à 10 premiers) : 215






 Retour